GSAT0210 (PRN E01)

Last updated on Feb. 28, 2020, 4:49 a.m. UTC

1 41550U 16030B   20057.16002510  .00000009  00000-0  00000+0 0  9992
2 41550  56.3810 285.0330 0001936 323.9713  36.0775  1.70474736 23381
UTC
Height (km)
Latitude
Longitude
Inclination
Orbital Period
UTC large
Height (km)
Speed (km/s)
/
Latitude / Longitude
Inclination (degrees)
Orbital Period (minutes)
Azimuth
Elevation
Range (km)
Doppler Factor
iOS Compass Heading
iOS Angle

Next 30 passes for location: Hong Kong

Rise time Rise Azimuth (degrees) Set time Set Azimuth (degrees) Duration Max altitude (degrees)

No matching passes for this satellites